Location: Seven Kings
(51.5667°N, 0.1000°E)
Time: 12:08:53
(UTC+00:00)

Cosmos 2278 Rocket - Pass Details

Date: 29 October 2020
Orbit: 840 x 846 km, 71.0° (Epoch: 24 November)

Event Time Altitude Azimuth Distance (km) Brightness Sun altitude
Rises 20:01:40 0° 329° (NNW) 3,413 6.0 -32.0°
Reaches altitude 10° 20:04:51 10° 347° (NNW) 2,476 5.0 -32.4°
Enters shadow 20:06:58 17° 7° (N) 2,037 4.3 -32.8°
